TimeEST,TemperatureF,Dew PointF,Humidity,Sea Level PressureIn,VisibilityMPH,Wind Direction,Wind SpeedMPH,Gust SpeedMPH,PrecipitationIn,Events,Conditions,WindDirDegrees,DateUTC
12:53 AM,27.0,24.1,89,30.51,10.0,Calm,Calm,-,N/A,,Clear,0,2011-11-06 04:53:00
1:53 AM,25.0,23.0,92,30.52,10.0,Calm,Calm,-,N/A,,Clear,0,2011-11-06 05:53:00
1:53 AM,25.0,23.0,92,30.52,10.0,Calm,Calm,-,N/A,,Clear,0,2011-11-06 06:53:00
2:53 AM,24.1,21.9,91,30.51,10.0,Calm,Calm,-,N/A,,Clear,0,2011-11-06 07:53:00
3:53 AM,23.0,21.9,96,30.51,10.0,Calm,Calm,-,N/A,,Clear,0,2011-11-06 08:53:00
4:53 AM,23.0,21.0,92,30.53,10.0,Calm,Calm,-,N/A,,Clear,0,2011-11-06 09:53:00
5:53 AM,21.9,21.0,96,30.53,10.0,Calm,Calm,-,N/A,,Clear,0,2011-11-06 10:53:00
6:53 AM,23.0,21.0,92,30.55,9.0,Calm,Calm,-,N/A,,Clear,0,2011-11-06 11:53:00
7:53 AM,28.0,25.0,88,30.56,10.0,Calm,Calm,-,N/A,,Clear,0,2011-11-06 12:53:00
8:53 AM,34.0,30.0,85,30.56,10.0,Calm,Calm,-,N/A,,Clear,0,2011-11-06 13:53:00
9:53 AM,46.0,34.0,63,30.56,10.0,WSW,9.2,17.3,N/A,,Clear,240,2011-11-06 14:53:00
10:53 AM,48.9,36.0,61,30.53,10.0,WSW,8.1,-,N/A,,Clear,250,2011-11-06 15:53:00
11:53 AM,50.0,36.0,59,30.49,10.0,Variable,6.9,-,N/A,,Clear,0,2011-11-06 16:53:00
12:53 PM,52.0,34.0,50,30.47,10.0,SSW,8.1,-,N/A,,Clear,200,2011-11-06 17:53:00
1:53 PM,53.1,34.0,48,30.44,10.0,WSW,10.4,-,N/A,,Clear,250,2011-11-06 18:53:00
2:53 PM,54.0,35.1,49,30.43,10.0,WSW,8.1,-,N/A,,Clear,240,2011-11-06 19:53:00
3:53 PM,52.0,35.1,53,30.42,10.0,SW,6.9,-,N/A,,Clear,220,2011-11-06 20:53:00
4:53 PM,45.0,35.1,68,30.41,10.0,South,4.6,-,N/A,,Clear,190,2011-11-06 21:53:00
5:53 PM,39.9,34.0,79,30.42,10.0,SW,3.5,-,N/A,,Clear,220,2011-11-06 22:53:00
6:53 PM,43.0,35.1,74,30.42,10.0,Calm,Calm,-,N/A,,Clear,0,2011-11-06 23:53:00
7:53 PM,37.0,34.0,89,30.41,10.0,Calm,Calm,-,N/A,,Clear,0,2011-11-07 00:53:00
8:53 PM,35.1,33.1,92,30.41,10.0,Calm,Calm,-,N/A,,Clear,0,2011-11-07 01:53:00
10:53 PM,30.9,30.0,96,30.39,10.0,Calm,Calm,-,N/A,,Clear,0,2011-11-07 03:53:00